Pasco, WA
on Sunday, November 18, 2012

Sunday
Previous Day Next Day
Daily Summary
 ActualAverageRecord
Temperature
Mean Temperature °F 40°F  
Max Temperature 56°F 49°F 69°F (2003)
Min Temperature 39°F 32°F 16°F (2014)
Degree Days
Heating Degree Days 17 25  
Month to date heating degree days 366 388  
Since 1 July heating degree days 810 906  
Cooling Degree Days 0 0  
Month to date cooling degree days 0 0  
Year to date cooling degree days 788 710  
Moisture
Dew Point 35°F   
Average Humidity 60    
Maximum Humidity 82    
Minimum Humidity 38    
Precipitation
Precipitation T in 0.03 in 0.33 in (1954)
Month to date precipitation 0.38 0.60  
Year to date precipitation 7.84 7.13  
Snow
Snow 0.00 in in in ()
Snow Depth 0.00 in   
Wind
Wind Speed 9 mph   
Max Wind Speed 23 mph   
Max Gust Speed 32 mph   
Visibility 10 miles   
Events Rain   

Key: T is trace of precipitation, MM is missing value
Source: NWS Daily Summary
Time(PST)TemperatureDew PointHumidity Pressure Visibility Wind DirectionWind SpeedGust SpeedPrecipitationEvents Conditions
12:53 AM 43.0°F 37.0°F 80% 29.83 in 10.0 miles South 6.9 mph - N/A   Scattered Clouds
1:53 AM 44.1°F 36.0°F 73% 29.83 in 10.0 miles South 10.4 mph - N/A   Clear
2:53 AM 41.0°F 35.1°F 79% 29.86 in 10.0 miles South 9.2 mph - N/A   Clear
3:53 AM 42.1°F 34.0°F 73% 29.87 in 10.0 miles South 8.1 mph - N/A   Clear
4:53 AM 42.1°F 33.1°F 70% 29.90 in 10.0 miles Calm Calm - N/A   Clear
5:53 AM 44.1°F 32.0°F 63% 29.90 in 10.0 miles SE 5.8 mph - N/A   Clear
6:53 AM 39.0°F 33.1°F 79% 29.90 in 10.0 miles East 6.9 mph - N/A   Clear
7:53 AM 42.1°F 34.0°F 73% 29.91 in 10.0 miles SSE 10.4 mph - N/A   Clear
8:53 AM 43.0°F 36.0°F 76% 29.91 in 10.0 miles NE 8.1 mph - N/A   Overcast
9:53 AM 46.9°F 36.0°F 66% 29.91 in 10.0 miles SSE 8.1 mph - N/A   Overcast
10:53 AM 50.0°F 34.0°F 54% 29.91 in 10.0 miles SE 5.8 mph - N/A   Overcast
11:53 AM 52.0°F 35.1°F 53% 29.88 in 10.0 miles ESE 6.9 mph - N/A   Mostly Cloudy
12:53 PM 55.0°F 35.1°F 47% 29.85 in 10.0 miles South 11.5 mph - N/A   Mostly Cloudy
1:53 PM 54.0°F 34.0°F 47% 29.85 in 10.0 miles South 13.8 mph - N/A   Overcast
2:53 PM 54.0°F 36.0°F 51% 29.84 in 10.0 miles SSE 12.7 mph - N/A   Mostly Cloudy
3:53 PM 53.1°F 35.1°F 50% 29.84 in 10.0 miles SSE 12.7 mph - N/A   Overcast
4:53 PM 53.1°F 34.0°F 48% 29.84 in 10.0 miles SSE 11.5 mph - N/A   Overcast
5:53 PM 51.1°F 36.0°F 56% 29.83 in 10.0 miles SE 9.2 mph - N/A   Mostly Cloudy
6:53 PM 55.9°F 30.9°F 39% 29.81 in 10.0 miles SSE 18.4 mph 31.1 mph N/A   Scattered Clouds
7:53 PM 54.0°F 30.9°F 41% 29.81 in 10.0 miles South 17.3 mph 27.6 mph N/A   Overcast
8:53 PM 50.0°F 39.0°F 66% 29.80 in 10.0 miles SE 16.1 mph - 0.00 in Rain Light Rain
9:53 PM 51.1°F 39.0°F 63% 29.81 in 10.0 miles SE 12.7 mph - 0.00 in   Overcast
10:53 PM 50.0°F 39.0°F 66% 29.78 in 10.0 miles East 11.5 mph - N/A   Overcast
11:53 PM 53.1°F 37.9°F 57% 29.77 in 10.0 miles SE 18.4 mph 27.6 mph N/A   Overcast
Moon Phase
Nov. 18 Nov. 20 Nov. 28 Dec. 06 Dec. 13
Sunrise:07:02 AM (PST) Moon Rise:11:28 AM (PST)11/18
Sunset:04:20 PM (PST) Moon Set:09:51 PM (PST)11/18

Copyright © 2014 The Weather Underground, Inc.